Weather History for Bilbao, Spain

Change the Weather History Date:

Saturday, October 6, 2012

  Actual Average Record
Temperature  
Mean Temperature 71 °F -  
Max Temperature 80 °F 68 °F 84 °F (2008)
Min Temperature 62 °F 51 °F 39 °F (1999)
Cooling Degree Days 6    
Growing Degree Days 21 (Base 50)    
Moisture  
Dew Point 56 °F    
Average Humidity 58    
Maximum Humidity 94    
Minimum Humidity 34    
Precipitation  
Precipitation 0.00 in - - ()
Sea Level Pressure  
Sea Level Pressure 30.02 in    
Wind  
Wind Speed 5 mph ()    
Max Wind Speed 10 mph    
Max Gust Speed 18 mph    
Visibility 5.8 miles    
Events Rain    
Averages and records for this station are not official NWS values.
T = Trace of Precipitation, MM = Missing Value Source: Averaged Metar Reports

Daily Weather History Graph

Daily Weather History Graph

Search for Another Location

Airport:

Trip Planner

Search our weather history database for the weather conditions in past years. The results will help you decide how hot, cold, wet, or windy it might be!

Date:

Astronomy

Oct. 06, 2012 Rise Set
Actual Time 8:15 AM CEST 7:43 PM CEST
Civil Twilight 7:46 AM CEST 8:11 PM CEST
Nautical Twilight 7:13 AM CEST 8:44 PM CEST
Astronomical Twilight 6:40 AM CEST 9:18 PM CEST
Moon 11:38 PM CEST (10/6) 2:06 PM CEST (10/6)
Length of Visible Light 12h 25m
Length of Day
11h 28m
Waning Gibbous, 68% of the Moon is Illuminated
Oct 6
Waning Gibbous
Oct 8
Last Quarter
Oct 15
New
Oct 22
First Quarter
Oct 29
Full

Hourly Weather History & Observations

Time (CEST) Temp. Heat Index Dew Point Humidity Pressure Visibility Wind Dir Wind Speed Gust Speed Precip Events Conditions
5:00 AM 62.6 °F - 50.0 °F 63% 29.98 in - East 10.4 mph - N/A   Clear
5:30 AM 66.2 °F - 51.8 °F 60% 29.98 in - East 8.1 mph - N/A   Clear
6:00 AM 68.0 °F - 51.8 °F 56% 29.98 in - ESE 9.2 mph - N/A   Clear
6:30 AM 68.0 °F - 50.0 °F 52% 29.98 in - Variable 3.5 mph - N/A   Clear
7:00 AM 69.8 °F - 50.0 °F 49% 29.98 in - NE 8.1 mph - N/A   Clear
7:30 AM 69.8 °F - 50.0 °F 49% 29.98 in - NE 8.1 mph - N/A   Clear
8:00 AM 64.4 °F - 50.0 °F 59% 29.98 in - NE 4.6 mph 16.1 mph N/A   Clear
8:30 AM 69.8 °F - 48.2 °F 46% 29.98 in - Variable 1.2 mph - N/A   Clear
9:00 AM 69.8 °F - 51.8 °F 53% 30.01 in - Variable 1.2 mph 15.0 mph N/A   Clear
9:30 AM 69.8 °F - 48.2 °F 46% 30.01 in - WSW 6.9 mph - N/A   Clear
10:00 AM 73.4 °F - 48.2 °F 41% 30.01 in - West 4.6 mph - N/A   Clear
10:30 AM 77.0 °F - 50.0 °F 39% 30.01 in - Calm Calm - N/A   Clear
11:00 AM 78.8 °F - 50.0 °F 36% 30.01 in - South 6.9 mph 18.4 mph N/A   Clear
11:30 AM 78.8 °F - 51.8 °F 39% 30.04 in - South 9.2 mph - N/A   Clear
12:00 PM 80.6 °F - 50.0 °F 34% 30.04 in - South 8.1 mph - N/A   Clear
12:30 PM 80.6 °F - 51.8 °F 37% 30.04 in - Variable 1.2 mph - N/A   Clear
1:00 PM 80.6 °F - 50.0 °F 34% 30.04 in - WSW 4.6 mph - N/A   Clear
1:30 PM 80.6 °F 80.3 °F 53.6 °F 39% 30.04 in - Variable 1.2 mph - N/A   Clear
2:00 PM 80.6 °F - 51.8 °F 37% 30.04 in - Calm Calm - N/A   Clear
2:30 PM 80.6 °F 80.3 °F 53.6 °F 39% 30.01 in - Variable 1.2 mph - N/A   Clear
3:00 PM 78.8 °F - 60.8 °F 54% 30.01 in - Variable 1.2 mph - N/A   Clear
3:30 PM 78.8 °F - 60.8 °F 54% 30.01 in - Variable 1.2 mph - N/A   Clear
4:00 PM 78.8 °F - 57.2 °F 47% 30.01 in - Variable 1.2 mph - N/A   Clear
4:30 PM 80.6 °F 80.5 °F 55.4 °F 42% 30.01 in - WSW 3.5 mph - N/A   Clear
5:00 PM 80.6 °F 80.3 °F 53.6 °F 39% 29.98 in - SW 4.6 mph - N/A   Clear
5:30 PM 80.6 °F 80.3 °F 53.6 °F 39% 30.01 in - SSW 6.9 mph - N/A   Clear
6:00 PM 80.6 °F 80.3 °F 53.6 °F 39% 30.01 in - SSW 3.5 mph - N/A   Clear
6:30 PM 71.6 °F - 64.4 °F 78% 30.01 in - West 6.9 mph - N/A   Clear
7:00 PM 69.8 °F - 66.2 °F 88% 30.04 in 6.2 mi West 6.9 mph - N/A   Partly Cloudy
7:30 PM 68.0 °F - 64.4 °F 88% 30.04 in 6.2 mi WSW 4.6 mph - N/A   Partly Cloudy
8:00 PM 68.0 °F - 64.4 °F 88% 30.06 in 6.2 mi Variable 2.3 mph - N/A   Partly Cloudy
8:30 PM 68.0 °F - 64.4 °F 88% 30.06 in 6.2 mi Variable 1.2 mph - N/A   Partly Cloudy
9:00 PM 68.0 °F - 64.4 °F 88% 30.06 in 5.0 mi Calm Calm - N/A Rain Light Rain
9:30 PM 66.2 °F - 64.4 °F 94% 30.09 in 5.6 mi Variable 2.3 mph - N/A   Scattered Clouds
10:00 PM 66.2 °F - 64.4 °F 94% 30.09 in 5.6 mi Calm Calm - N/A Rain Light Rain
10:30 PM 66.2 °F - 64.4 °F 94% 30.09 in 5.6 mi Calm Calm - N/A   Scattered Clouds
11:00 PM 66.2 °F - 64.4 °F 94% 30.09 in 5.6 mi Variable 1.2 mph - N/A   Scattered Clouds
11:30 PM 66.2 °F - 64.4 °F 94% 30.09 in 5.6 mi Calm Calm - N/A   Partly Cloudy